Погода в Ленинауле

Россия / Республика Дагестан     43°05′42″N   46°34′25″E
темп.,
°C
ветер,
м/с
пор.,
м/с
влажн.,
%
обл.,
%
осадки,
мм/ч
давл.,
гПа
погр.,
м
10 апреля, сб
сб1000:00+6сз2291100 0.0 1015292
03:00+5ссз1191100 0.1 1016192
06:00+5сз1190100 0.0 1016186
09:00+9ссв217170 0.0 1015451
12:00+9с3272100 0.0 1016587
15:00+9с217699 0.1 1016508
18:00+7ссв2283100 0.1 1017324
21:00+5с1190100 0.1 1019244
11 апреля, вс
вс1100:00+5св1290100 0.0 1018151
03:00+5ссв0191100 0.0 1019105
06:00+6вюв1284100 0.0 101778
09:00+12ссв23617 0.0 1015473
12:00+15св4453100 0.0 1014760
15:00+14с3353100 0.0 1013737
18:00+10зсз1174100 0.1 1015127
21:00+10св0280100 0.6 101566
12 апреля, пн
пн1200:00+8ю1188100 0.0 101517
03:00+7ююв1189100 0.0 101513
06:00+7вюв0189100 0.0 101617
09:00+11с2175100 0.0 1017571
12:00+10ссз3279100 0.1 1018707
15:00+9ссз2381100 0.3 1019664
18:00+8сз1188100 0.1 1020172
21:00+8св1192100 0.1 1020132
13 апреля, вт
вт1300:00+7всв119747 0.0 101968
03:00+6ссв019771 0.0 1020112
06:00+6в119693 0.0 1020152
09:00+8ссв2293100 0.1 1020330
12:00+8ссв2293100 0.1 1020382
15:00+8с1294100 0.1 1019354
18:00+7ссз1297100 0.4 1020241
21:00+7ссв0196100 0.5 1020127
14 апреля, ср
ср1400:00+6св119778 0.0 1019113
03:00+5зсз119779 0.1 1018130
06:00+5з119360 0.0 1018129
09:00+8ссз2275100 0.0 1017587
12:00+8ссз3383100 0.1 1017756
15:00+6сз2294100 1.1 1018386
18:00+5сз2297100 4.8 1018290
21:00+5юз249394 6.8 1019331